FW5813 Weather Reports


time (UTC)temp
C
wind
direction
speed
KPH
gust
KPH
rain 1hr
cm
rain 24hr
cm
rain mn
cm
humidity
%
barometer
mb
20260502170502 24 312 0.0 0.0 0.00 0.00 0.00 27 1019.0
20260502164002 27 312 0.0 0.0 0.00 0.00 0.00 22 1019.1
20260502163500 27 313 0.0 0.0 0.00 0.00 0.00 22 1019.3
20260502163000 27 312 0.0 0.0 0.00 0.00 0.00 24 1019.2
20260502161959 26 312 0.0 0.0 0.00 0.00 0.00 23 1019.5
20260502161500 27 313 0.0 0.0 0.00 0.00 0.00 26 1019.3
20260502160959 26 312 0.0 3.2 0.00 0.00 0.00 25 1019.4
20260502151944 25 359 3.2 3.2 0.00 0.00 0.00 26 1020.1
20260502150944 25 359 3.2 6.4 0.00 0.00 0.00 26 1020.0
20260502130434 25 3 1.6 3.2 0.00 0.00 0.00 27 1021.6
20260502123403 25 3 1.6 3.2 0.00 0.00 0.00 27 1021.9
20260502122905 25 3 1.6 6.4 0.00 0.00 0.00 27 1021.8
20260502122404 25 3 1.6 6.4 0.00 0.00 0.00 27 1022.0
20260502121903 23 136 6.4 6.4 0.00 0.00 0.00 29 1021.9
20260502121403 26 330 0.0 0.0 0.00 0.00 0.00 30 1022.1
20260502120903 25 330 0.0 0.0 0.00 0.00 0.00 28 1022.1
20260502120402 25 330 0.0 0.0 0.00 0.00 0.00 27 1022.1
20260502115903 24 330 0.0 0.0 0.00 0.00 0.00 26 1022.2
20260502115402 25 330 0.0 0.0 0.00 0.00 0.00 27 1022.3
20260502114903 25 330 0.0 0.0 0.00 0.00 0.00 30 1022.2
20260502114403 25 330 0.0 0.0 0.00 0.00 0.00 30 1022.3
20260502113903 26 329 0.0 11.3 0.00 0.00 0.00 27 1022.7
20260502113357 25 343 0.0 11.3 0.00 0.00 0.00 26 1022.8
20260502112858 25 358 9.7 11.3 0.00 0.00 0.00 29 1022.9
20260502112357 23 358 9.7 11.3 0.00 0.00 0.00 31 1022.6
20260502111858 23 358 9.7 11.3 0.00 0.00 0.00 31 1022.7
20260502111357 23 358 9.7 11.3 0.00 0.00 0.00 31 1022.9
20260502110857 23 358 9.7 11.3 0.00 0.00 0.00 31 1022.9
20260502110352 23 358 9.7 11.3 0.00 0.00 0.00 31 1022.9
20260502105851 23 358 9.7 11.3 0.00 0.00 0.00 31 1023.1
20260502105347 23 358 9.7 11.3 0.00 0.00 0.00 31 1023.0
20260502104349 23 358 9.7 11.3 0.00 0.00 0.00 31 1023.2
20260502103844 23 358 9.7 11.3 0.00 0.00 0.00 31 1023.3
20260502103341 23 358 9.7 11.3 0.00 0.00 0.00 31 1023.3
20260502102842 23 358 9.7 12.9 0.00 0.00 0.00 31 1023.5
20260502102341 23 351 3.2 12.9 0.00 0.00 0.00 32 1023.5
20260502101841 22 13 4.8 9.7 0.00 0.00 0.00 34 1023.6
20260502100840 24 170 1.6 9.7 0.00 0.00 0.00 31 1023.7
20260502100340 23 282 3.2 6.4 0.00 0.00 0.00 32 1023.8
20260502091423 22 88 4.8 8.0 0.00 0.00 0.00 37 1024.2
20260502090841 22 69 3.2 8.0 0.00 0.00 0.00 34 1024.4
20260502071340 17 19 1.6 6.4 0.00 0.00 0.00 49 1024.9
20260502070839 18 11 3.2 4.8 0.00 0.00 0.00 46 1025.0
20260502070341 17 186 0.0 4.8 0.00 0.00 0.00 48 1024.9
20260502065840 17 154 0.0 4.8 0.00 0.00 0.00 49 1025.0
20260502065340 17 199 0.0 4.8 0.00 0.00 0.00 46 1025.0
20260502063840 16 63 1.6 6.4 0.00 0.00 0.00 50 1025.3
20260502063340 16 13 4.8 6.4 0.00 0.00 0.00 52 1025.1
20260502062839 16 47 0.0 3.2 0.00 0.00 0.00 55 1024.9
20260502062339 15 164 0.0 4.8 0.00 0.00 0.00 55 1024.9
20260502061340 14 92 0.0 3.2 0.00 0.00 0.00 58 1024.9
20260502060839 14 25 0.0 4.8 0.00 0.00 0.00 58 1025.1
20260502060353 13 173 1.6 4.8 0.00 0.00 0.00 62 1025.1
20260502055840 12 82 0.0 3.2 0.00 0.00 0.00 62 1025.1
20260502054854 12 109 0.0 3.2 0.00 0.00 0.00 63 1025.0
20260502054341 12 154 1.6 3.2 0.00 0.00 0.00 65 1025.2
20260502053353 11 100 1.6 3.2 0.00 0.00 0.00 65 1025.1
20260502052840 11 89 0.0 3.2 0.00 0.00 0.00 64 1025.1
20260502052354 11 99 3.2 3.2 0.00 0.00 0.00 64 1025.1
20260502051840 11 19 0.0 3.2 0.00 0.00 0.00 65 1024.8
20260502051340 11 132 0.0 3.2 0.00 0.00 0.00 64 1025.1
20260502050854 10 100 0.0 3.2 0.00 0.00 0.00 67 1024.9
20260502050340 10 37 0.0 3.2 0.00 0.00 0.00 67 1025.0
20260502045840 8 42 1.6 3.2 0.00 0.00 0.00 71 1024.9
20260502044840 8 62 0.0 3.2 0.00 0.00 0.00 72 1025.0
20260502044340 7 69 0.0 3.2 0.00 0.00 0.00 73 1024.8
20260502043841 7 44 1.6 3.2 0.00 0.00 0.00 76 1024.8
20260502043340 6 48 0.0 3.2 0.00 0.00 0.00 77 1024.8
20260502042853 6 33 0.0 3.2 0.00 0.00 0.00 80 1024.8
20260502042340 5 36 1.6 3.2 0.00 0.00 0.00 81 1024.7
20260502041840 5 54 0.0 3.2 0.00 0.00 0.00 84 1024.7
20260502041340 4 34 1.6 3.2 0.00 0.00 0.00 85 1024.7
20260502040841 3 39 3.2 3.2 0.00 0.00 0.00 86 1024.7
20260502040341 3 50 0.0 3.2 0.00 0.00 0.00 85 1024.9
20260502035840 3 50 0.0 3.2 0.00 0.00 0.00 85 1024.6
20260502035341 3 52 0.0 3.2 0.00 0.00 0.00 85 1024.8
20260502034840 3 38 0.0 3.2 0.00 0.00 0.00 85 1024.6
20260502034340 3 27 3.2 3.2 0.00 0.00 0.00 85 1024.7
20260502033840 3 64 1.6 3.2 0.00 0.00 0.00 85 1024.7
20260502033340 4 26 3.2 3.2 0.00 0.00 0.00 84 1024.5
20260502032840 4 26 3.2 3.2 0.00 0.00 0.00 84 1024.6
20260502032341 4 26 3.2 3.2 0.00 0.00 0.00 84 1024.5
20260502031840 4 26 3.2 3.2 0.00 0.00 0.00 84 1024.7
20260502031340 4 26 3.2 3.2 0.00 0.00 0.00 84 1024.7
20260502030354 4 25 1.6 3.2 0.00 0.00 0.00 84 1024.7
20260502025841 4 38 1.6 3.2 0.00 0.00 0.00 83 1024.6
20260502025341 4 34 3.2 3.2 0.00 0.00 0.00 83 1024.7
20260502024840 4 41 1.6 3.2 0.00 0.00 0.00 83 1024.5
20260502024341 5 34 1.6 3.2 0.00 0.00 0.00 82 1024.8
20260502023841 5 34 1.6 3.2 0.00 0.00 0.00 83 1024.7
20260502023340 5 26 1.6 3.2 0.00 0.00 0.00 83 1024.5
20260502022341 4 55 0.0 1.6 0.00 0.00 0.00 84 1024.9
20260502021854 5 95 0.0 1.6 0.00 0.00 0.00 84 1024.9
20260502021341 5 95 0.0 1.6 0.00 0.00 0.00 84 1024.7
20260502020840 5 24 0.0 1.6 0.00 0.00 0.00 82 1025.0
20260502020341 5 137 0.0 3.2 0.00 0.00 0.00 82 1024.7
20260502015840 5 132 1.6 3.2 0.00 0.00 0.00 82 1024.8
20260502015353 5 45 3.2 3.2 0.00 0.00 0.00 80 1024.8
20260502014840 5 43 3.2 4.8 0.00 0.00 0.00 80 1024.6
20260502014340 5 26 3.2 4.8 0.00 0.00 0.00 81 1025.1
20260502013840 5 7 1.6 4.8 0.00 0.00 0.00 81 1024.7
20260502013341 5 31 0.0 4.8 0.00 0.00 0.00 82 1024.7
20260502012840 6 23 0.0 3.2 0.00 0.00 0.00 79 1024.9
20260502012340 6 25 3.2 3.2 0.00 0.00 0.00 79 1024.7
20260502011841 5 46 1.6 3.2 0.00 0.00 0.00 81 1024.9
20260502011353 5 39 3.2 3.2 0.00 0.00 0.00 81 1024.8
20260502010841 5 34 1.6 3.2 0.00 0.00 0.00 82 1024.7
20260502005341 5 35 1.6 3.2 0.00 0.00 0.00 80 1024.7
20260502004841 5 56 0.0 1.6 0.00 0.00 0.00 80 1024.8
20260502003841 6 55 0.0 0.0 0.00 0.00 0.00 79 1025.0
20260502002840 6 103 0.0 1.6 0.00 0.00 0.00 78 1025.0
20260502002340 6 89 0.0 1.6 0.00 0.00 0.00 79 1024.9
20260502001841 6 76 0.0 1.6 0.00 0.00 0.00 79 1024.9
20260502001340 6 67 0.0 1.6 0.00 0.00 0.00 78 1024.8
20260502000840 6 41 1.6 1.6 0.00 0.00 0.00 78 1025.0
20260502000340 6 45 1.6 3.2 0.00 0.00 0.00 78 1024.8
20260501235841 6 32 0.0 3.2 0.00 0.00 0.00 77 1025.0
20260501234340 6 50 0.0 1.6 0.00 0.00 0.00 76 1025.1
20260501233840 7 99 0.0 1.6 0.00 0.00 0.00 75 1025.1
20260501232341 7 99 0.0 3.2 0.00 0.00 0.00 74 1025.1
20260501231840 7 204 0.0 1.6 0.00 0.00 0.00 73 1025.2
20260501231340 7 130 0.0 1.6 0.00 0.00 0.00 73 1025.2
20260501230841 7 138 0.0 1.6 0.00 0.00 0.00 73 1025.1
20260501225842 8 142 0.0 1.6 0.00 0.00 0.00 71 1024.9
20260501225340 8 124 0.0 3.2 0.00 0.00 0.00 71 1025.2
20260501224841 8 142 0.0 3.2 0.00 0.00 0.00 70 1024.8
20260501224341 8 62 0.0 3.2 0.00 0.00 0.00 70 1025.0
20260501223841 8 67 1.6 1.6 0.00 0.00 0.00 69 1025.1
20260501223341 8 44 0.0 1.6 0.00 0.00 0.00 68 1025.2
20260501222841 8 37 0.0 3.2 0.00 0.00 0.00 68 1025.3
20260501222341 9 44 0.0 3.2 0.00 0.00 0.00 67 1025.1
20260501221841 9 18 3.2 3.2 0.00 0.00 0.00 67 1025.2
20260501221341 9 32 0.0 3.2 0.00 0.00 0.00 67 1025.0
20260501220841 9 44 0.0 3.2 0.00 0.00 0.00 67 1025.1
20260501220340 9 16 1.6 4.8 0.00 0.00 0.00 67 1024.9
20260501215840 9 13 3.2 4.8 0.00 0.00 0.00 67 1025.0
20260501215341 9 22 3.2 4.8 0.00 0.00 0.00 67 1025.3
20260501214841 9 29 3.2 3.2 0.00 0.00 0.00 66 1025.3
20260501213341 9 46 3.2 12.9 0.00 0.00 0.00 65 1025.0
20260501212840 9 54 3.2 12.9 0.00 0.00 0.00 67 1025.3
20260501212341 11 89 9.7 12.9 0.00 0.00 0.00 59 1025.1
20260501211841 11 80 3.2 4.8 0.00 0.00 0.00 58 1025.1
20260501211341 11 76 4.8 4.8 0.00 0.00 0.00 57 1025.1
20260501210841 11 54 0.0 3.2 0.00 0.00 0.00 57 1024.8
20260501210341 12 13 0.0 3.2 0.00 0.00 0.00 57 1024.8
20260501205840 12 50 0.0 3.2 0.00 0.00 0.00 57 1024.8
20260501205340 12 297 0.0 3.2 0.00 0.00 0.00 56 1024.8
20260501204340 12 0 0.0 3.2 0.00 0.00 0.00 55 1024.9
20260501203841 12 14 1.6 3.2 0.00 0.00 0.00 55 1024.8
20260501203340 12 77 0.0 3.2 0.00 0.00 0.00 55 1024.7
20260501202841 12 18 0.0 3.2 0.00 0.00 0.00 54 1025.0
20260501201841 12 49 3.2 3.2 0.00 0.00 0.00 54 1024.8
20260501200825 13 36 0.0 4.8 0.00 0.00 0.00 53 1025.0
20260501195825 13 4 1.6 4.8 0.00 0.00 0.00 53 1024.7
20260501195324 13 15 0.0 3.2 0.00 0.00 0.00 53 1024.5
20260501194824 13 34 1.6 3.2 0.00 0.00 0.00 53 1024.6
20260501194324 13 50 3.2 3.2 0.00 0.00 0.00 53 1024.7
20260501193824 13 1 3.2 4.8 0.00 0.00 0.00 53 1024.9
20260501193324 13 330 1.6 4.8 0.00 0.00 0.00 53 1024.9
20260501192825 13 49 0.0 3.2 0.00 0.00 0.00 54 1024.9
20260501191824 13 43 0.0 3.2 0.00 0.00 0.00 55 1024.8
20260501190824 13 26 0.0 4.8 0.00 0.00 0.00 54 1024.7
20260501190324 13 10 4.8 4.8 0.00 0.00 0.00 54 1024.8
20260501185825 13 33 0.0 6.4 0.00 0.00 0.00 54 1024.8
20260501185325 13 19 1.6 6.4 0.00 0.00 0.00 54 1024.7
20260501184824 13 14 1.6 3.2 0.00 0.00 0.00 53 1024.6
20260501184324 14 18 0.0 3.2 0.00 0.00 0.00 52 1024.6
20260501183325 15 27 1.6 3.2 0.00 0.00 0.00 50 1024.7
20260501182824 15 331 3.2 3.2 0.00 0.00 0.00 50 1024.5
20260501182324 15 12 1.6 3.2 0.00 0.00 0.00 48 1024.6
20260501181824 16 13 0.0 1.6 0.00 0.00 0.00 46 1024.5
20260501181325 16 224 0.0 1.6 0.00 0.00 0.00 46 1024.5
20260501180825 17 37 0.0 3.2 0.00 0.00 0.00 43 1024.4
20260501180324 17 37 0.0 4.8 0.00 0.00 0.00 42 1024.3